Saint Gallen-Altenrhein, Switzerland

7:36 PM CET on March 25, 2017 (GMT +0100)
Altenrhein

Weather History for LSZR - November, 2012

Change the Weather History Date:

Sunday, November 25, 2012

  Actual Average (LOIH) Record (LOIH)
Temperature  
Mean Temperature 47 °F -  
Max Temperature 59 °F 40 °F 73 °F (2006)
Min Temperature 35 °F 34 °F 17 °F (1999)
Degree Days  
Heating Degree Days 18    
Moisture  
Dew Point 41 °F    
Average Humidity 78    
Maximum Humidity 93    
Minimum Humidity 51    
Precipitation  
Precipitation 0.00 in - - ()
Sea Level Pressure  
Sea Level Pressure 30.05 in    
Wind  
Wind Speed 3 mph ()    
Max Wind Speed 16 mph    
Max Gust Speed -    
Visibility 6.2 miles    
Events      
Averages and records for this station are not official NWS values.
T = Trace of Precipitation, MM = Missing Value Source: Averaged Metar Reports

Daily Weather History Graph

Daily Weather History Graph

Search for Another Location

Airport or City:

Trip Planner

Search our weather history database for the weather conditions in past years. The results will help you decide how hot, cold, wet, or windy it might be!

Date:

Astronomy

Nov. 25, 2012 Rise Set
Actual Time 7:41 AM CET 4:36 PM CET
Civil Twilight 7:06 AM CET 5:10 PM CET
Nautical Twilight 6:28 AM CET 5:48 PM CET
Astronomical Twilight 5:51 AM CET 6:25 PM CET
Moon 2:51 PM CET 4:30 AM CET
Length of Visible Light 10h 04m
Length of Day
8h 55m
Waxing Gibbous, 91% of the Moon is Illuminated
Nov 25
Waxing Gibbous
Nov 28
Full
Dec 6
Last Quarter
Dec 13
New
Dec 20
First Quarter

Hourly Weather History & Observations

Time (CET) Temp. Windchill Dew Point Humidity Pressure Visibility Wind Dir Wind Speed Gust Speed Precip Events Conditions
12:20 AM 48.2 °F - 41.0 °F 76% 30.04 in - Variable 1.2 mph - N/A   Clear
12:50 AM 48.2 °F - 41.0 °F 76% 30.04 in - SE 2.3 mph - N/A   Clear
1:20 AM 46.4 °F 44.3 °F 41.0 °F 81% 30.04 in - East 4.6 mph - N/A   Clear
1:50 AM 48.2 °F - 41.0 °F 76% 30.04 in - SE 4.6 mph - N/A   Clear
2:20 AM 46.4 °F - 41.0 °F 81% 30.06 in - Variable 1.2 mph - N/A   Clear
2:50 AM 46.4 °F - 41.0 °F 81% 30.06 in - Calm Calm - N/A   Clear
3:20 AM 44.6 °F - 39.2 °F 81% 30.06 in - Variable 1.2 mph - N/A   Clear
3:50 AM 44.6 °F 42.2 °F 39.2 °F 81% 30.06 in - East 4.6 mph - N/A   Clear
4:20 AM 39.2 °F - 37.4 °F 93% 30.04 in 6.2 mi Variable 1.2 mph - N/A   Unknown
4:50 AM 39.2 °F - 35.6 °F 87% 30.04 in - Variable 1.2 mph - N/A   Clear
5:20 AM 39.2 °F - 35.6 °F 87% 30.04 in - Variable 1.2 mph - N/A   Clear
5:50 AM 35.6 °F - 33.8 °F 93% 30.04 in - Variable 1.2 mph - N/A   Clear
6:20 AM 39.2 °F 37.0 °F 33.8 °F 81% 30.04 in 6.2 mi SW 3.5 mph - N/A   Unknown
6:50 AM 37.4 °F - 33.8 °F 87% 30.04 in 6.2 mi ESE 2.3 mph - N/A   Unknown
7:20 AM 37.4 °F - 33.8 °F 87% 30.04 in - Variable 2.3 mph - N/A   Clear
7:50 AM 42.8 °F - 35.6 °F 76% 30.04 in 6.2 mi Variable 2.3 mph - N/A   Unknown
8:20 AM 41.0 °F 39.0 °F 35.6 °F 81% 30.04 in 6.2 mi West 3.5 mph - N/A   Unknown
8:50 AM 42.8 °F - 39.2 °F 87% 30.04 in 6.2 mi Variable 2.3 mph - N/A   Scattered Clouds
9:20 AM 46.4 °F - 41.0 °F 81% 30.06 in 6.2 mi Variable 1.2 mph - N/A   Overcast
9:50 AM 50.0 °F - 39.2 °F 66% 30.06 in 6.2 mi Variable 2.3 mph - N/A   Mostly Cloudy
10:20 AM 51.8 °F - 39.2 °F 62% 30.06 in 6.2 mi Variable 1.2 mph - N/A   Unknown
10:50 AM 55.4 °F - 37.4 °F 51% 30.06 in - Variable 2.3 mph - N/A   Clear
11:20 AM 53.6 °F - 39.2 °F 58% 30.06 in - Variable 1.2 mph - N/A   Clear
11:50 AM 53.6 °F - 42.8 °F 67% 30.06 in 6.2 mi Variable 1.2 mph - N/A   Partly Cloudy
12:20 PM 59.0 °F - 42.8 °F 55% 30.04 in - West 12.7 mph - N/A   Clear
12:50 PM 59.0 °F - 42.8 °F 55% 30.04 in 6.2 mi West 16.1 mph - N/A   Unknown
1:20 PM 59.0 °F - 42.8 °F 55% 30.04 in 6.2 mi WSW 15.0 mph - N/A   Partly Cloudy
1:50 PM 59.0 °F - 42.8 °F 55% 30.04 in 6.2 mi West 16.1 mph - N/A   Overcast
2:20 PM 57.2 °F - 42.8 °F 59% 30.04 in 6.2 mi West 13.8 mph - N/A   Unknown
2:50 PM 57.2 °F - 42.8 °F 59% 30.04 in 6.2 mi West 12.7 mph - N/A   Mostly Cloudy
3:20 PM 55.4 °F - 44.6 °F 67% 30.04 in 6.2 mi West 12.7 mph - N/A   Mostly Cloudy
3:50 PM 53.6 °F - 46.4 °F 77% 30.06 in 6.2 mi NNW 9.2 mph - N/A   Mostly Cloudy
4:20 PM 51.8 °F - 46.4 °F 82% 30.06 in 6.2 mi West 5.8 mph - N/A   Mostly Cloudy
4:50 PM 50.0 °F - 46.4 °F 87% 30.06 in - East 5.8 mph - N/A   Clear
5:20 PM 48.2 °F - 44.6 °F 87% 30.06 in 6.2 mi Variable 1.2 mph - N/A   Scattered Clouds
5:50 PM 48.2 °F - 44.6 °F 87% 30.06 in - South 1.2 mph - N/A   Clear
6:20 PM 48.2 °F - 42.8 °F 82% 30.04 in - Variable 1.2 mph - N/A   Clear
6:50 PM 48.2 °F - 44.6 °F 87% 30.04 in - SE 1.2 mph - N/A   Clear
7:20 PM 48.2 °F - 42.8 °F 82% 30.04 in - Calm Calm - N/A   Clear
7:50 PM 48.2 °F - 42.8 °F 82% 30.04 in - Variable 1.2 mph - N/A   Clear
8:20 PM 48.2 °F - 42.8 °F 82% 30.06 in 6.2 mi Calm Calm - N/A   Overcast
8:50 PM 46.4 °F - 42.8 °F 87% 30.06 in 6.2 mi Calm Calm - N/A   Mostly Cloudy
9:20 PM 46.4 °F - 42.8 °F 87% 30.06 in 6.2 mi Calm Calm - N/A   Mostly Cloudy
9:50 PM 46.4 °F - 42.8 °F 87% 30.04 in 6.2 mi SSE 2.3 mph - N/A   Overcast
10:20 PM 46.4 °F 42.9 °F 44.6 °F 93% 30.04 in 6.2 mi ESE 6.9 mph - N/A   Unknown
10:50 PM 50.0 °F - 44.6 °F 82% 30.04 in 6.2 mi ESE 4.6 mph - N/A   Mostly Cloudy
11:20 PM 50.0 °F - 44.6 °F 82% 30.01 in 6.2 mi Variable 2.3 mph - N/A   Mostly Cloudy
11:50 PM 48.2 °F - 44.6 °F 87% 30.01 in 6.2 mi East 4.6 mph - N/A   Mostly Cloudy